#timestamp,LO_Frequency,Hit,StdDev 
1650988815.2,286046999.5,N
1650988835.0,286046996.5,N
1650988835.9,286046996.5,N
1650988855.7,286046999.6,N
1650988875.6,286046997.0,N
1650988895.4,286046999.2,N
1650988915.3,286046999.6,N
1650988935.1,286046997.4,N
1650988936.0,286046997.4,N
1650988955.8,286046997.6,N
1650988975.7,286046995.0,Y
1650988995.5,286046998.9,P
1650989015.3,286047001.2,P
1650989035.2,286047000.7,N
1650989055.0,286046999.9,N
1650989055.9,286046999.9,N
1650989075.8,286047000.2,N
1650989095.6,286047002.6,N
1650989115.4,286046998.3,N
1650989135.3,286047001.2,N
1650989155.1,286046998.4,N
1650989175.8,286046998.6,N
1650989195.7,286047000.0,N
1650989215.5,286047000.9,N
1650989235.4,286047000.6,N
1650989255.2,286047002.8,N
1650989275.0,286047002.3,N
1650989275.9,286047002.3,N
1650989295.8,286047001.9,N
1650989315.6,286047001.8,N
1650989335.4,286047001.3,N
1650989355.3,286047001.9,N
1650989375.1,286047002.7,N
1650989395.9,286047000.3,N
1650989415.7,286047000.7,N
1650989435.5,286047000.1,N
1650989455.4,286047000.6,N
1650989475.2,286047000.0,N
1650989495.0,286047001.6,N
1650989496.0,286047001.6,N
1650989515.8,286047001.4,N
1650989535.6,286047002.8,N
1650989555.5,286046999.7,N
1650989575.3,286047000.6,N
1650989595.1,286047000.4,N
1650989615.9,286046999.9,N
1650989635.7,286046999.8,N
1650989655.6,286047002.2,N
1650989675.4,286047002.0,N
1650989695.2,286047002.1,N
1650989715.1,286047002.4,N
1650989716.0,286047002.4,N
1650989735.8,286047000.4,N
1650989755.6,286046998.5,N
1650989775.5,286046998.5,N
1650989795.3,286046999.6,N
1650989815.2,286046997.8,N
1650989835.9,286046999.6,N
1650989855.7,286046999.1,N
1650989875.6,286046999.0,N
1650989895.4,286046997.0,N
1650989915.2,286046997.2,N
1650989935.1,286046996.7,N
1650989936.0,286046996.7,N
1650989955.8,286046997.2,N
1650989975.7,286046998.3,N
1650989995.5,286046996.7,N
1650990015.3,286046997.7,N
1650990035.2,286046997.7,N
1650990055.0,286046997.8,N
1650990055.9,286046997.8,N
1650990075.7,286046997.5,N
1650990095.6,286046997.6,N
1650990115.4,286046997.2,N
1650990135.3,286046997.8,N
1650990155.1,286046997.2,N
1650990156.0,286046997.2,N
1650990175.8,286046997.6,N
1650990195.7,286046994.9,N
1650990215.5,286046995.0,N
1650990235.4,286046994.0,Y
1650990255.2,286046995.5,P
1650990275.0,286046995.2,P
1650990275.9,286046995.2,P
1650990295.8,286046995.4,Y
1650990315.6,286047000.6,P
1650990335.4,286047000.0,N
1650990355.3,286047002.3,N
1650990375.1,286047002.6,N
1650990395.9,286047001.6,N
1650990415.7,286047000.2,N
1650990435.5,286047000.4,N
1650990455.4,286047001.1,N
1650990475.2,286047000.2,N
1650990495.0,286047001.9,N
1650990495.9,286047001.9,N
1650990515.8,286047001.7,N
1650990535.6,286047001.8,N
1650990555.5,286047002.3,N
1650990575.3,286047002.8,N
1650990595.1,286047002.4,N
1650990615.9,286047002.8,N
1650990635.7,286047002.5,N
1650990655.5,286046999.7,N
1650990675.4,286047002.0,N
1650990695.2,286047001.7,N
1650990715.0,286047001.5,N
1650990716.0,286047001.5,N
1650990735.8,286047001.3,N
1650990755.6,286047001.4,N
1650990775.5,286047001.8,N
1650990795.3,286047004.2,Y
1650990815.2,286047001.9,P
1650990835.9,286047001.8,P
1650990855.7,286047001.4,P
1650990875.6,286047003.7,Y
1650990895.4,286047001.9,P
1650990915.3,286047002.6,P
1650990935.1,286047001.5,P
1650990936.0,286047001.5,Y
1650990955.8,286047001.0,P
1650990975.7,286046999.9,N
1650990995.5,286047000.5,N
1650991015.3,286047000.4,N
1650991035.2,286047001.7,N
1650991055.0,286046999.8,N
1650991055.9,286046999.8,N
1650991075.8,286047002.4,Y
1650991095.6,286047000.3,P
1650991115.5,286047000.9,P
1650991135.3,286046998.8,P
1650991155.1,286047000.9,N
1650991175.9,286046999.9,N
1650991195.7,286047000.1,N
1650991215.5,286046999.9,N
1650991235.4,286047000.3,N
1650991255.2,286047000.8,N
1650991275.1,286047000.6,N
1650991276.0,286047000.6,N
1650991295.8,286047000.8,N
1650991315.6,286046999.8,N
1650991335.5,286047000.0,N
1650991355.3,286047002.8,Y
1650991375.1,286047000.1,P
1650991395.9,286047002.7,P
1650991415.7,286047002.5,N
1650991435.6,286047002.3,N
1650991455.4,286047002.3,N
1650991475.2,286047002.2,N
1650991495.1,286047001.8,N
1650991496.0,286047001.8,N
1650991515.8,286047001.9,N
1650991535.6,286047002.1,N
1650991555.5,286047000.2,N
1650991575.3,286047003.9,Y
1650991595.2,286047000.9,P
1650991615.9,286047001.1,N
1650991635.7,286047000.5,N
1650991655.6,286046998.2,Y
1650991675.4,286046996.6,P
1650991695.3,286046998.8,N
1650991715.1,286046999.2,N
1650991716.0,286046999.2,N
1650991735.8,286046998.5,N
1650991755.7,286046998.8,N
1650991775.5,286046998.7,N
1650991795.4,286047000.7,N
1650991815.2,286046998.5,N
1650991835.0,286046999.4,N
1650991835.9,286046999.4,N
1650991855.8,286046997.4,N
1650991875.6,286046999.1,N
1650991895.4,286046998.4,N
1650991915.3,286046998.3,N
1650991935.1,286046996.5,Y
1650991955.9,286046998.1,P
1650991975.7,286047000.8,N
1650991995.5,286046998.5,N
1650992015.4,286047000.8,N
1650992035.2,286047000.6,N
1650992055.0,286046999.8,N
1650992055.9,286046999.8,N
1650992075.8,286047000.9,N
1650992095.6,286046999.9,N
1650992115.5,286047000.0,N
1650992135.3,286047002.1,N
1650992155.1,286047002.6,N
1650992175.9,286047002.5,N
1650992195.7,286047002.0,N
1650992215.5,286047002.3,N
1650992235.4,286047002.3,N
1650992255.2,286047002.5,N
1650992275.1,286046999.7,N
1650992276.0,286046999.7,N
1650992295.9,286047000.2,N
1650992315.7,286047000.6,N
1650992335.5,286047000.4,N
1650992355.4,286047000.1,N
1650992375.2,286046999.9,N
1650992395.0,286047002.8,N
1650992396.0,286047002.8,N
